ADZ6FE HKJK-HTZA

Flight info

Callsign ADZ6FE
Flight time 0h 58m
Altitude 35000
Route ATUDU1D GABSO UT913 DUNDO
Aircraft B738/M-SDE2E3FGHIRWXY/LB1

Departure

Time 2026-04-22 20:53
Airport Jomo Kenyatta International Airport (HKJK)

Arrival

Time 2026-04-22 21:52
Airport Abeid Amani Karume International Airport (HTZA)
Time Latitude Longitude Altitude Speed Heading
2026-04-22 20:13 -1.33550 36.91350 5338 ft 0 kts 144°
2026-04-22 20:46 -1.33532 36.91337 5343 ft 4 kts 144°
2026-04-22 20:46 -1.33510 36.91321 5346 ft 4 kts 144°
2026-04-22 20:46 -1.33490 36.91304 5344 ft 4 kts 131°
2026-04-22 20:47 -1.33476 36.91282 5344 ft 4 kts 99°
2026-04-22 20:47 -1.33479 36.91262 5345 ft 1 kts 55°
2026-04-22 20:49 -1.33477 36.91264 5345 ft 2 kts 54°
2026-04-22 20:49 -1.33460 36.91288 5344 ft 7 kts 54°
2026-04-22 20:50 -1.33422 36.91343 5342 ft 12 kts 54°
2026-04-22 20:50 -1.33363 36.91422 5344 ft 16 kts 53°
2026-04-22 20:50 -1.33287 36.91523 5345 ft 20 kts 52°
2026-04-22 20:50 -1.33194 36.91633 5343 ft 23 kts 38°
2026-04-22 20:51 -1.33088 36.91749 5344 ft 23 kts 55°
2026-04-22 20:51 -1.32982 36.91816 5343 ft 16 kts 326°
2026-04-22 20:51 -1.32894 36.91748 5344 ft 16 kts 323°
2026-04-22 20:51 -1.32807 36.91687 5344 ft 15 kts 325°
2026-04-22 20:52 -1.32750 36.91663 5342 ft 3 kts 26°
2026-04-22 20:52 -1.32733 36.91681 5344 ft 6 kts 54°
2026-04-22 20:52 -1.32674 36.91761 5340 ft 34 kts 54°
2026-04-22 20:52 -1.32388 36.92150 5333 ft 103 kts 54°
2026-04-22 20:53 -1.31843 36.92892 5328 ft 159 kts 56°
2026-04-22 20:53 -1.31151 36.93830 5782 ft 174 kts 55°
2026-04-22 20:53 -1.30415 36.94818 6555 ft 181 kts 56°
2026-04-22 20:53 -1.29856 36.96042 6737 ft 211 kts 87°
2026-04-22 20:54 -1.30272 36.97493 6913 ft 233 kts 128°
2026-04-22 20:54 -1.31643 36.98412 7267 ft 250 kts 164°
2026-04-22 20:54 -1.33468 36.98435 7543 ft 278 kts 192°
2026-04-22 20:54 -1.35248 36.97611 8231 ft 290 kts 219°
2026-04-22 20:55 -1.36449 36.95983 9016 ft 299 kts 248°
2026-04-22 20:55 -1.36896 36.93957 9992 ft 295 kts 262°
2026-04-22 20:55 -1.37161 36.91942 10886 ft 296 kts 256°
2026-04-22 20:55 -1.37847 36.89962 11437 ft 307 kts 243°
2026-04-22 20:56 -1.39037 36.88132 11810 ft 325 kts 227°
2026-04-22 20:56 -1.40862 36.86694 11966 ft 345 kts 202°
2026-04-22 20:56 -1.43188 36.86238 12721 ft 341 kts 174°
2026-04-22 20:56 -1.45432 36.86852 13622 ft 336 kts 152°
2026-04-22 20:57 -1.47474 36.88062 14082 ft 348 kts 146°
2026-04-22 20:57 -1.49557 36.89368 14529 ft 357 kts 147°
2026-04-22 20:57 -1.51675 36.90649 15295 ft 354 kts 148°
2026-04-22 20:57 -1.53819 36.91876 15875 ft 360 kts 150°
2026-04-22 20:58 -1.55303 36.92674 16013 ft 371 kts 151°
2026-04-22 20:58 -1.57598 36.93865 16669 ft 371 kts 151°
2026-04-22 20:58 -1.59899 36.95030 17334 ft 372 kts 152°
2026-04-22 20:58 -1.62243 36.96186 17754 ft 380 kts 152°
2026-04-22 20:59 -1.64627 36.97369 18293 ft 382 kts 152°
2026-04-22 20:59 -1.66988 36.98547 19052 ft 377 kts 152°
2026-04-22 20:59 -1.69354 36.99714 19479 ft 383 kts 152°
2026-04-22 20:59 -1.71763 37.00905 19834 ft 389 kts 152°
2026-04-22 21:00 -1.74195 37.02105 20366 ft 390 kts 152°
2026-04-22 21:00 -1.76628 37.03302 20926 ft 390 kts 152°
2026-04-22 21:00 -1.79071 37.04506 21374 ft 393 kts 152°
2026-04-22 21:00 -1.81534 37.05719 21837 ft 396 kts 152°
2026-04-22 21:01 -1.84012 37.06938 22296 ft 399 kts 152°
2026-04-22 21:01 -1.86474 37.08149 22753 ft 401 kts 152°
2026-04-22 21:01 -1.89013 37.09399 23206 ft 403 kts 152°
2026-04-22 21:01 -1.91507 37.10625 23619 ft 406 kts 152°
2026-04-22 21:02 -1.94080 37.11890 23991 ft 408 kts 152°
2026-04-22 21:02 -1.96637 37.13147 24331 ft 411 kts 152°
2026-04-22 21:02 -1.99208 37.14411 24658 ft 413 kts 152°
2026-04-22 21:02 -2.01797 37.15684 24992 ft 415 kts 152°
2026-04-22 21:03 -2.04363 37.16946 25333 ft 418 kts 152°
2026-04-22 21:03 -2.07011 37.18248 25681 ft 420 kts 152°
2026-04-22 21:03 -2.09602 37.19522 26006 ft 422 kts 153°
2026-04-22 21:03 -2.12243 37.20821 26323 ft 424 kts 153°
2026-04-22 21:04 -2.14901 37.22128 26631 ft 427 kts 153°
2026-04-22 21:04 -2.17575 37.23444 26938 ft 429 kts 153°
2026-04-22 21:04 -2.20262 37.24765 27248 ft 432 kts 153°
2026-04-22 21:04 -2.22963 37.26094 27547 ft 434 kts 153°
2026-04-22 21:05 -2.25680 37.27430 27842 ft 436 kts 153°
2026-04-22 21:05 -2.28411 37.28774 28146 ft 439 kts 153°
2026-04-22 21:05 -2.31154 37.30123 28425 ft 441 kts 153°
2026-04-22 21:05 -2.33911 37.31479 28719 ft 442 kts 153°
2026-04-22 21:06 -2.36680 37.32842 29020 ft 444 kts 153°
2026-04-22 21:06 -2.39457 37.34208 29311 ft 446 kts 153°
2026-04-22 21:06 -2.42243 37.35579 29602 ft 447 kts 153°
2026-04-22 21:06 -2.45036 37.36954 29973 ft 447 kts 153°
2026-04-22 21:07 -2.47822 37.38324 30360 ft 445 kts 153°
2026-04-22 21:07 -2.50597 37.39690 30701 ft 444 kts 153°
2026-04-22 21:07 -2.53373 37.41056 31013 ft 445 kts 153°
2026-04-22 21:07 -2.56148 37.42422 31324 ft 445 kts 153°
2026-04-22 21:08 -2.58923 37.43788 31655 ft 444 kts 153°
2026-04-22 21:08 -2.61691 37.45150 32007 ft 444 kts 153°
2026-04-22 21:08 -2.64460 37.46514 32352 ft 443 kts 153°
2026-04-22 21:08 -2.67224 37.47874 32688 ft 443 kts 153°
2026-04-22 21:09 -2.69987 37.49235 32993 ft 443 kts 153°
2026-04-22 21:09 -2.72754 37.50597 33276 ft 444 kts 153°
2026-04-22 21:09 -2.75529 37.51964 33580 ft 444 kts 153°
2026-04-22 21:09 -2.78308 37.53333 33823 ft 446 kts 153°
2026-04-22 21:10 -2.81098 37.54706 34079 ft 447 kts 154°
2026-04-22 21:10 -2.83892 37.56082 34309 ft 448 kts 154°
2026-04-22 21:10 -2.86661 37.57524 34524 ft 449 kts 150°
2026-04-22 21:10 -2.89361 37.59099 34742 ft 450 kts 149°
2026-04-22 21:11 -2.92033 37.60735 34973 ft 451 kts 148°
2026-04-22 21:11 -2.94704 37.62395 35070 ft 454 kts 148°
2026-04-22 21:11 -3.00134 37.65752 35078 ft 463 kts 149°
2026-04-22 21:12 -3.05679 37.69137 35073 ft 471 kts 149°
2026-04-22 21:12 -3.11327 37.72562 35062 ft 477 kts 149°
2026-04-22 21:13 -3.17012 37.76008 35045 ft 478 kts 149°
2026-04-22 21:13 -3.22705 37.79461 35038 ft 478 kts 149°
2026-04-22 21:14 -3.28386 37.82908 35038 ft 477 kts 149°
2026-04-22 21:14 -3.34053 37.86346 35032 ft 475 kts 149°
2026-04-22 21:15 -3.39699 37.89773 35027 ft 474 kts 149°
2026-04-22 21:15 -3.45327 37.93190 35029 ft 473 kts 149°
2026-04-22 21:16 -3.50942 37.96599 35029 ft 472 kts 149°
2026-04-22 21:16 -3.56513 37.99983 35027 ft 471 kts 149°
2026-04-22 21:17 -3.62113 38.03385 35026 ft 470 kts 148°
2026-04-22 21:17 -3.67685 38.06813 35024 ft 470 kts 148°
2026-04-22 21:18 -3.73249 38.10251 35021 ft 470 kts 148°
2026-04-22 21:18 -3.78813 38.13686 35020 ft 469 kts 148°
2026-04-22 21:19 -3.84374 38.17116 35016 ft 469 kts 148°
2026-04-22 21:19 -3.89933 38.20544 35012 ft 469 kts 148°
2026-04-22 21:20 -3.95503 38.23980 35007 ft 469 kts 148°
2026-04-22 21:20 -4.01027 38.27389 35001 ft 465 kts 148°
2026-04-22 21:21 -4.03729 38.29056 34939 ft 449 kts 148°
2026-04-22 21:21 -4.06378 38.30685 34593 ft 443 kts 148°
2026-04-22 21:21 -4.08993 38.32284 34236 ft 438 kts 148°
2026-04-22 21:21 -4.11590 38.33868 33818 ft 435 kts 148°
2026-04-22 21:22 -4.14164 38.35439 33380 ft 431 kts 148°
2026-04-22 21:22 -4.16718 38.36997 32956 ft 427 kts 148°
2026-04-22 21:22 -4.19240 38.38538 32558 ft 423 kts 148°
2026-04-22 21:22 -4.21742 38.40067 32159 ft 419 kts 148°
2026-04-22 21:23 -4.24195 38.41567 31772 ft 416 kts 148°
2026-04-22 21:23 -4.26654 38.43071 31382 ft 412 kts 148°
2026-04-22 21:23 -4.29099 38.44566 31003 ft 409 kts 148°
2026-04-22 21:23 -4.31518 38.46045 30627 ft 406 kts 148°
2026-04-22 21:24 -4.33917 38.47513 30255 ft 402 kts 147°
2026-04-22 21:24 -4.36300 38.48971 29848 ft 399 kts 147°
2026-04-22 21:24 -4.38664 38.50417 29423 ft 396 kts 147°
2026-04-22 21:24 -4.40547 38.51569 29085 ft 393 kts 147°
2026-04-22 21:25 -4.42225 38.52596 28795 ft 390 kts 147°
2026-04-22 21:25 -4.44528 38.54005 28410 ft 386 kts 147°
2026-04-22 21:25 -4.46809 38.55401 28027 ft 382 kts 147°
2026-04-22 21:25 -4.49063 38.56780 27651 ft 378 kts 147°
2026-04-22 21:26 -4.51304 38.58152 27276 ft 375 kts 147°
2026-04-22 21:26 -4.53517 38.59507 26908 ft 371 kts 147°
2026-04-22 21:26 -4.55715 38.60852 26536 ft 368 kts 147°
2026-04-22 21:26 -4.57896 38.62187 26171 ft 365 kts 147°
2026-04-22 21:27 -4.60057 38.63510 25810 ft 363 kts 146°
2026-04-22 21:27 -4.62203 38.64824 25458 ft 360 kts 146°
2026-04-22 21:27 -4.64336 38.66131 25099 ft 358 kts 146°
2026-04-22 21:27 -4.66451 38.67426 24749 ft 355 kts 146°
2026-04-22 21:28 -4.68553 38.68714 24385 ft 353 kts 146°
2026-04-22 21:28 -4.70622 38.69981 24027 ft 352 kts 146°
2026-04-22 21:28 -4.72707 38.71258 23661 ft 351 kts 146°
2026-04-22 21:28 -4.74786 38.72533 23275 ft 349 kts 146°
2026-04-22 21:29 -4.76849 38.73797 22872 ft 347 kts 146°
2026-04-22 21:29 -4.78897 38.75052 22497 ft 344 kts 146°
2026-04-22 21:29 -4.80930 38.76298 22147 ft 341 kts 146°
2026-04-22 21:29 -4.82950 38.77536 21789 ft 339 kts 146°
2026-04-22 21:30 -4.84960 38.78767 21439 ft 337 kts 146°
2026-04-22 21:30 -4.86997 38.79932 21089 ft 337 kts 153°
2026-04-22 21:30 -4.89166 38.80772 20865 ft 332 kts 158°
2026-04-22 21:30 -4.91348 38.81531 20524 ft 331 kts 159°
2026-04-22 21:31 -4.93520 38.82272 20202 ft 329 kts 159°
2026-04-22 21:31 -4.95683 38.83011 19873 ft 328 kts 159°
2026-04-22 21:31 -4.97841 38.83752 19529 ft 328 kts 159°
2026-04-22 21:31 -4.99996 38.84496 19186 ft 327 kts 159°
2026-04-22 21:32 -5.02146 38.85241 18832 ft 327 kts 159°
2026-04-22 21:32 -5.04290 38.85986 18474 ft 323 kts 160°
2026-04-22 21:32 -5.06369 38.86710 18134 ft 316 kts 160°
2026-04-22 21:32 -5.08430 38.87427 17767 ft 309 kts 159°
2026-04-22 21:33 -5.10438 38.88127 17435 ft 302 kts 159°
2026-04-22 21:33 -5.12425 38.88821 17134 ft 303 kts 159°
2026-04-22 21:33 -5.14429 38.89521 16820 ft 307 kts 159°
2026-04-22 21:33 -5.16471 38.90235 16510 ft 315 kts 159°
2026-04-22 21:34 -5.18556 38.90964 16175 ft 318 kts 159°
2026-04-22 21:34 -5.20640 38.91692 15833 ft 317 kts 159°
2026-04-22 21:34 -5.22717 38.92417 15497 ft 316 kts 159°
2026-04-22 21:34 -5.24788 38.93141 15171 ft 315 kts 159°
2026-04-22 21:35 -5.26856 38.93863 14847 ft 316 kts 159°
2026-04-22 21:35 -5.28943 38.94592 14509 ft 319 kts 159°
2026-04-22 21:35 -5.31046 38.95327 14172 ft 322 kts 159°
2026-04-22 21:35 -5.33176 38.96072 13820 ft 325 kts 159°
2026-04-22 21:36 -5.35306 38.96817 13442 ft 324 kts 160°
2026-04-22 21:36 -5.37400 38.97549 13084 ft 321 kts 159°
2026-04-22 21:36 -5.39507 38.98285 12736 ft 318 kts 160°
2026-04-22 21:36 -5.41592 38.99013 12398 ft 316 kts 160°
2026-04-22 21:37 -5.43657 38.99735 12059 ft 313 kts 159°
2026-04-22 21:37 -5.45705 39.00451 11736 ft 310 kts 159°
2026-04-22 21:37 -5.47740 39.01162 11404 ft 307 kts 159°
2026-04-22 21:37 -5.49752 39.01866 11084 ft 305 kts 159°
2026-04-22 21:38 -5.51721 39.02554 10757 ft 300 kts 159°
2026-04-22 21:38 -5.53665 39.03234 10434 ft 290 kts 159°
2026-04-22 21:38 -5.55543 39.03890 10125 ft 281 kts 159°
2026-04-22 21:38 -5.57362 39.04526 9998 ft 272 kts 159°
2026-04-22 21:39 -5.59145 39.05150 9718 ft 271 kts 159°
2026-04-22 21:39 -5.60919 39.05771 9418 ft 269 kts 159°
2026-04-22 21:39 -5.62676 39.06386 9173 ft 266 kts 159°
2026-04-22 21:39 -5.64425 39.06998 8886 ft 264 kts 160°
2026-04-22 21:40 -5.66155 39.07604 8609 ft 263 kts 160°
2026-04-22 21:40 -5.67876 39.08206 8334 ft 261 kts 160°
2026-04-22 21:40 -5.69586 39.08805 8058 ft 260 kts 160°
2026-04-22 21:40 -5.71285 39.09400 7782 ft 258 kts 160°
2026-04-22 21:41 -5.72958 39.09985 7501 ft 257 kts 160°
2026-04-22 21:41 -5.74649 39.10577 7233 ft 256 kts 160°
2026-04-22 21:41 -5.76329 39.11165 6965 ft 254 kts 160°
2026-04-22 21:41 -5.77999 39.11750 6694 ft 254 kts 160°
2026-04-22 21:42 -5.79665 39.12333 6425 ft 253 kts 160°
2026-04-22 21:42 -5.81309 39.12909 6141 ft 252 kts 160°
2026-04-22 21:42 -5.82959 39.13487 5864 ft 250 kts 160°
2026-04-22 21:42 -5.84602 39.14062 5601 ft 249 kts 160°
2026-04-22 21:43 -5.86231 39.14633 5339 ft 247 kts 160°
2026-04-22 21:43 -5.87853 39.15201 5071 ft 246 kts 160°
2026-04-22 21:43 -5.89467 39.15766 4809 ft 244 kts 160°
2026-04-22 21:43 -5.91067 39.16327 4551 ft 243 kts 161°
2026-04-22 21:44 -5.92663 39.16886 4278 ft 241 kts 161°
2026-04-22 21:44 -5.93710 39.17253 4156 ft 238 kts 161°
2026-04-22 21:44 -5.95733 39.17962 4017 ft 227 kts 161°
2026-04-22 21:44 -5.96732 39.18312 3938 ft 222 kts 161°
2026-04-22 21:45 -5.98063 39.18777 3852 ft 217 kts 161°
2026-04-22 21:45 -5.99925 39.19430 3723 ft 211 kts 161°
2026-04-22 21:45 -6.00838 39.19750 3670 ft 208 kts 161°
2026-04-22 21:45 -6.02214 39.20232 3458 ft 211 kts 161°
2026-04-22 21:46 -6.03639 39.20597 3238 ft 211 kts 173°
2026-04-22 21:46 -6.05099 39.20744 3003 ft 211 kts 175°
2026-04-22 21:46 -6.06560 39.20873 2784 ft 211 kts 175°
2026-04-22 21:46 -6.08515 39.21096 2439 ft 214 kts 173°
2026-04-22 21:47 -6.09510 39.21207 2263 ft 212 kts 174°
2026-04-22 21:47 -6.10946 39.21354 1995 ft 207 kts 175°
2026-04-22 21:47 -6.12358 39.21495 1726 ft 200 kts 174°
2026-04-22 21:47 -6.13711 39.21632 1468 ft 190 kts 175°
2026-04-22 21:48 -6.14961 39.21759 1224 ft 172 kts 175°
2026-04-22 21:48 -6.16081 39.21873 1004 ft 154 kts 175°
2026-04-22 21:48 -6.17099 39.21989 850 ft 138 kts 174°
2026-04-22 21:48 -6.18027 39.22073 569 ft 135 kts 176°
2026-04-22 21:49 -6.19009 39.22174 613 ft 146 kts 173°
2026-04-22 21:49 -6.19838 39.22316 1871 ft 88 kts 165°
2026-04-22 21:49 -6.20280 39.22420 1327 ft 84 kts 222°
2026-04-22 21:49 -6.20894 39.21506 737 ft 167 kts 244°
2026-04-22 21:50 -6.20664 39.20405 706 ft 179 kts 322°
2026-04-22 21:50 -6.19545 39.20492 680 ft 173 kts 52°
2026-04-22 21:50 -6.19223 39.21601 623 ft 163 kts 88°
2026-04-22 21:50 -6.19744 39.22474 576 ft 156 kts 165°
2026-04-22 21:51 -6.20846 39.22374 144 ft 157 kts 175°
2026-04-22 21:51 -6.21859 39.22454 86 ft 129 kts 173°
2026-04-22 21:51 -6.22755 39.22548 71 ft 128 kts 185°
2026-04-22 21:52 -6.22828 39.22548 77 ft 0 kts 190°